sat.trackr.live / text

‹ back to catalog

STARLINK-4045

NORAD 53152 · 2022-083W

PAYLOAD ACTIVE UNKNOWN

§ Identity

Operator
Country
US
Launch date
2022-07-17
Launch site
AFETR
Launch vehicle
Mass (kg)
RCS (m²)

Purposes: comms

External: N2YO · Heavens-Above · Gunter

§ Orbital elements

Epoch: 2026-05-25T06:00:02.000160Z

Period
93.78 min
Inclination
53.2183°
Eccentricity
0.0001383
Mean motion
15.35468368 rev/d
Perigee alt
458.6 km
Apogee alt
460.5 km
Semi-major
6,837.7 km
B*
1.7405e-3
RAAN
175.1821°
Arg perigee
75.2738°
Mean anomaly
119.4284°
Rev number
583

§ Raw data

STARLINK-40451 53152U 22083W   26145.25002315  .00060954  00000+0  17405-2 0  99992 53152  53.2183 175.1821 0001383  75.2738 119.4284 15.35468368  5836

JSON: /api/v1/satellites/53152 · /tle

For live sub-satellite position, see the globe view (requires WebGL).

§ Visibility from observer

Set your observer location to see the next 7 days of passes ≥ 10°. The values pass through the URL so the page stays shareable.

No JS? Fill the form by hand. The geolocation button needs JavaScript.